TABS, Texas Automated Buoy System, NOAA HAZMAT, Ocean Observatory, Real Time Oceanographic Data Supporting Oil Spill Prevention and Response

Texas General Land Office  Texas General
 Land Office
 Oil Spill Prevention
 & Response
Texas Automated Buoy System
Real Time Ocean Observations
Supporting Oil Spill Prevention and Response since 1995
Geochemical and Environmental Research Group

TABS Buoy J -- Texas Automated Buoy System

TABS Buoy J Conditions at 06/28/2016 23:30 UTC (06/28/2016 18:30 CDT)
26° 11.4840'N   97° 3.0420'W
AA3900 DCS - sensor depth 2m
Anemometer height: 4m
Water Depth: 68 feet (20 meters)
Speed: 14.47 cm/s (0.28 kts) Direction: 239 °T (WSW) Water Temp: 29°C (83 °F)
System Voltage: 13.3 V Signal Strength: -3.3 dB Ping Count: 127
Wind: 3.7 m/s (7.2 kts)
          From 123°T (ESE)
Air Temp: 29 °C (83 °F)
Relative Humidity:  N/A
Pressure: 1013.5 mb (29.93 inHg)

  


IMPORTANT: Notice to Mariners


Today's System Data (download)

   Date   |  Time  | VBatt |  SigStr| Comp | Nping| Tx | Ty | ADCP | ADCP | VBatt |
          |  (UTC) | (Oper)|   (dB) | (°M) |      |    |    | Volt | Curr |(sleep)|
==========+========+=======+========+======+======+====+====+======+======+=======+
06/28/2016 00:00:00    13.3   -2.92   185.9    139    0    -3    1.0    4.0   -0.1
06/28/2016 00:30:00    13.3   -2.94   188.5    147    0    -3    1.0    3.0   -0.1
06/28/2016 01:00:00    13.1   -3.02   179.8    137    0    -3    1.0    3.0   -0.1
06/28/2016 01:30:00    12.7   -2.70   184.8    133    0    -3    1.0    3.0   -0.1
06/28/2016 02:00:00    12.7   -1.98   180.2    134    0    -3    1.0    3.0   -0.1
06/28/2016 02:30:00    12.7   -2.43   187.2    134    0    -2    1.0    3.0   -0.1
06/28/2016 03:00:00    12.7   -2.53   178.5    133    0    -2    1.0    3.0   -0.1
06/28/2016 03:30:00    12.7   -2.50   181.3    142    0    -2    1.0    2.0   -0.1
06/28/2016 04:00:00    12.7   -2.51   184.1    132    0    -2    1.0    2.0   -0.1
06/28/2016 04:30:00    12.7   -2.43   189.5    133    0    -2    1.0    2.0   -0.1
06/28/2016 05:00:00    12.7   -2.44   195.3    141    1    -2    1.0    2.0   -0.1
06/28/2016 05:30:00    12.7   -2.46   194.4    138    1    -2    1.0    2.0   -0.1
06/28/2016 06:00:00    12.7   -2.19   198.7    140    1    -2    1.0    2.0   -0.1
06/28/2016 06:30:00    12.6   -2.25   198.7    130    1    -2    1.0    2.0   -0.1
06/28/2016 07:00:00    12.7   -2.26   218.8    149    1    -2    1.0    2.0   -0.1
06/28/2016 07:30:00    12.6   -2.18   235.6    138    2    -1    1.0    2.0   -0.1
06/28/2016 08:00:00    12.6   -2.18   223.1    124    2    -1    1.0    2.0   -0.1
06/28/2016 08:30:00    12.6   -2.02   213.7    145    1    -2    1.0    2.0   -0.1
06/28/2016 09:00:00    12.6   -2.07   212.5    116    1    -2    1.0    2.0   -0.1
06/28/2016 09:30:00    12.6   -2.12   207.6    125    1    -1    1.0    2.0   -0.1
06/28/2016 10:00:00    12.6   -2.15   206.2    132    1    -2    1.0    2.0   -0.1
06/28/2016 10:30:00    12.6   -2.06   213.0    126    1    -1    1.0    2.0   -0.1
06/28/2016 11:00:00    12.6   -2.01   236.7    127    2     0    1.0    2.0   -0.1
06/28/2016 11:30:00    12.6   -2.42   218.2    135    1    -1    1.0    1.0   -0.1
06/28/2016 12:00:00    12.6   -2.41   194.3    138    1    -1    1.0    1.0   -0.1
06/28/2016 12:30:00    13.1   -2.52   201.5    143    1    -1    1.0    1.0   -0.1
06/28/2016 13:00:00    13.2   -2.43    56.4    126   -1     0    1.0    1.0   -0.1
06/28/2016 13:30:00    13.2   -2.45    28.0    145   -1     1    1.0    1.0   -0.1
06/28/2016 14:00:00    13.3   -2.45   141.6    141   -1    -1    1.0    1.0   -0.1
06/28/2016 14:30:00    13.3   -2.50   155.3    139    0    -2    1.0    1.0   -0.1
06/28/2016 15:00:00    13.4   -2.81   111.4    135   -1    -1    1.0    1.0   -0.1
06/28/2016 15:30:00    13.4   -3.18   137.0    125    0    -1    1.0    1.0   -0.1
06/28/2016 16:00:00    13.3   -3.20   125.4    130   -1    -1    1.0    2.0   -0.1
06/28/2016 16:30:00    13.4   -3.45   114.4    157   -1    -1    1.0    2.0   -0.1
06/28/2016 17:00:00    13.2   -3.66   114.5    136   -1    -1    1.0    2.0   -0.1
06/28/2016 17:30:00    13.1   -3.93   114.7    144   -2    -1    1.0    2.0   -0.1
06/28/2016 18:00:00    12.9   -3.80   109.6    148   -2    -1    1.0    2.0   -0.1
06/28/2016 18:30:00    12.9   -3.82   137.6    141   -1    -2    1.0    2.0   -0.1
06/28/2016 19:00:00    12.8   -3.90   141.8    150   -1    -2    1.0    3.0   -0.1
06/28/2016 19:30:00    12.9   -3.45   153.3    133   -1    -3    1.0    3.0   -0.1
06/28/2016 20:00:00    12.9   -2.54   159.9    123   -1    -3    1.0    3.0   -0.1
06/28/2016 20:30:00    13.0   -3.26   164.6    138   -1    -3    1.0    3.0   -0.1
06/28/2016 21:00:00    13.6   -2.86   170.2    140    0    -4    1.0    3.0   -0.1
06/28/2016 21:30:00    13.4   -2.83   175.9    144    0    -4    1.0    4.0   -0.1
06/28/2016 22:00:00    13.3   -3.74   186.3    126    0    -4    1.0    4.0   -0.1
06/28/2016 22:30:00    13.3   -3.50   188.9    132    0    -4    1.0    4.0   -0.1
06/28/2016 23:00:00    13.3   -3.33   189.8    138    1    -4    1.0    4.0   -0.1
06/28/2016 23:30:00    13.3   -3.28   189.3    127    1    -4    1.0    4.0   -0.1